Time,TemperatureF,DewpointF,PressureIn,WindDirection,WindDirectionDegrees,WindSpeedMPH,WindSpeedGustMPH,Humidity,HourlyPrecipIn,Conditions,Clouds,dailyrainin,SoftwareType,DateUTC
2013-01-24 00:03:00,3.0,-10.0,30.10,West,280,1.0,3.0,53,0.00,,,0.00,,2013-01-24 05:03:00,
2013-01-24 00:12:00,3.0,-10.0,30.10,West,280,1.0,3.0,53,0.00,,,0.00,,2013-01-24 05:12:00,
2013-01-24 00:22:00,3.0,-10.0,30.10,SW,236,1.0,4.0,53,0.00,,,0.00,,2013-01-24 05:22:00,
2013-01-24 00:33:00,3.0,-10.0,30.09,WSW,242,1.0,4.0,53,0.00,,,0.00,,2013-01-24 05:33:00,
2013-01-24 00:43:00,3.0,-10.0,30.09,WSW,242,1.0,4.0,53,0.00,,,0.00,,2013-01-24 05:43:00,
2013-01-24 00:53:00,4.0,-10.0,30.10,West,276,3.0,6.0,51,0.00,,,0.00,,2013-01-24 05:53:00,
2013-01-24 01:03:00,4.0,-10.0,30.09,NW,321,5.0,8.0,51,0.00,,,0.00,,2013-01-24 06:03:00,
2013-01-24 01:12:00,4.0,-10.0,30.09,NW,321,5.0,8.0,51,0.00,,,0.00,,2013-01-24 06:12:00,
2013-01-24 01:22:00,4.0,-10.0,30.10,NW,314,3.0,10.0,50,0.00,,,0.00,,2013-01-24 06:22:00,
2013-01-24 01:32:00,4.0,-11.0,30.10,WSW,255,3.0,10.0,49,0.00,,,0.00,,2013-01-24 06:32:00,
2013-01-24 01:42:00,4.0,-11.0,30.10,WSW,255,3.0,10.0,49,0.00,,,0.00,,2013-01-24 06:42:00,
2013-01-24 01:52:00,4.0,-11.0,30.11,NW,304,4.0,9.0,48,0.00,,,0.00,,2013-01-24 06:52:00,
2013-01-24 02:03:00,3.0,-12.0,30.11,NW,305,2.0,5.0,49,0.00,,,0.00,,2013-01-24 07:03:00,
2013-01-24 02:12:00,3.0,-12.0,30.11,NW,305,2.0,5.0,49,0.00,,,0.00,,2013-01-24 07:12:00,
2013-01-24 02:23:00,3.0,-11.0,30.11,West,264,3.0,9.0,50,0.00,,,0.00,,2013-01-24 07:23:00,
2013-01-24 02:33:00,3.0,-11.0,30.11,WNW,288,4.0,14.0,50,0.00,,,0.00,,2013-01-24 07:33:00,
2013-01-24 02:43:00,3.0,-11.0,30.11,WNW,288,4.0,14.0,50,0.00,,,0.00,,2013-01-24 07:43:00,
2013-01-24 02:53:00,3.0,-12.0,30.11,SW,226,5.0,9.0,49,0.00,,,0.00,,2013-01-24 07:53:00,
2013-01-24 03:02:00,3.0,-12.0,30.10,West,271,5.0,13.0,49,0.00,,,0.00,,2013-01-24 08:02:00,
2013-01-24 03:12:00,3.0,-12.0,30.10,West,271,5.0,13.0,49,0.00,,,0.00,,2013-01-24 08:12:00,
2013-01-24 03:23:00,3.0,-12.0,30.09,NW,319,5.0,11.0,49,0.00,,,0.00,,2013-01-24 08:23:00,
2013-01-24 03:33:00,2.0,-13.0,30.09,WSW,242,4.0,14.0,49,0.00,,,0.00,,2013-01-24 08:33:00,
2013-01-24 03:43:00,2.0,-13.0,30.09,WSW,242,4.0,14.0,49,0.00,,,0.00,,2013-01-24 08:43:00,
2013-01-24 03:52:00,2.0,-13.0,30.09,NW,319,5.0,11.0,49,0.00,,,0.00,,2013-01-24 08:52:00,
2013-01-24 04:03:00,2.0,-13.0,30.09,NW,316,6.0,12.0,49,0.00,,,0.00,,2013-01-24 09:03:00,
2013-01-24 04:13:00,2.0,-13.0,30.09,NW,316,6.0,12.0,49,0.00,,,0.00,,2013-01-24 09:13:00,
2013-01-24 04:23:00,2.0,-13.0,30.10,WSW,249,5.0,13.0,49,0.00,,,0.00,,2013-01-24 09:23:00,
2013-01-24 04:33:00,2.0,-12.0,30.09,WSW,250,6.0,14.0,50,0.00,,,0.00,,2013-01-24 09:33:00,
2013-01-24 04:43:00,2.0,-12.0,30.09,WSW,250,6.0,14.0,50,0.00,,,0.00,,2013-01-24 09:43:00,
2013-01-24 04:53:00,2.0,-13.0,30.10,WNW,285,6.0,13.0,49,0.00,,,0.00,,2013-01-24 09:53:00,
2013-01-24 05:03:00,1.0,-14.0,30.10,SW,233,5.0,15.0,49,0.00,,,0.00,,2013-01-24 10:03:00,
2013-01-24 05:12:00,1.0,-14.0,30.10,SW,233,5.0,15.0,49,0.00,,,0.00,,2013-01-24 10:12:00,
2013-01-24 05:23:00,1.0,-13.0,30.09,SSW,211,5.0,12.0,50,0.00,,,0.00,,2013-01-24 10:23:00,
2013-01-24 05:33:00,1.0,-13.0,30.09,NNW,335,6.0,14.0,50,0.00,,,0.00,,2013-01-24 10:33:00,
2013-01-24 05:43:00,1.0,-13.0,30.09,NNW,335,6.0,14.0,50,0.00,,,0.00,,2013-01-24 10:43:00,
2013-01-24 05:53:00,1.0,-13.0,30.09,WNW,285,6.0,14.0,50,0.00,,,0.00,,2013-01-24 10:53:00,
2013-01-24 06:03:00,1.0,-13.0,30.10,SW,226,6.0,12.0,50,0.00,,,0.00,,2013-01-24 11:03:00,
2013-01-24 06:12:00,1.0,-13.0,30.10,SW,226,6.0,12.0,50,0.00,,,0.00,,2013-01-24 11:12:00,
2013-01-24 06:23:00,0.0,-14.0,30.10,WSW,256,7.0,16.0,51,0.00,,,0.00,,2013-01-24 11:23:00,
2013-01-24 06:33:00,0.0,-13.0,30.10,WSW,245,3.0,13.0,52,0.00,,,0.00,,2013-01-24 11:33:00,
2013-01-24 06:43:00,0.0,-13.0,30.10,WSW,245,3.0,13.0,52,0.00,,,0.00,,2013-01-24 11:43:00,
2013-01-24 06:53:00,0.0,-14.0,30.10,WSW,245,6.0,18.0,51,0.00,,,0.00,,2013-01-24 11:53:00,
2013-01-24 07:03:00,0.0,-14.0,30.11,NNW,330,6.0,17.0,50,0.00,,,0.00,,2013-01-24 12:03:00,
2013-01-24 07:12:00,0.0,-14.0,30.11,NNW,330,6.0,17.0,50,0.00,,,0.00,,2013-01-24 12:12:00,
2013-01-24 07:23:00,0.0,-14.0,30.11,WSW,243,7.0,16.0,51,0.00,,,0.00,,2013-01-24 12:23:00,
2013-01-24 07:33:00,0.0,-13.0,30.10,WSW,250,6.0,12.0,52,0.00,,,0.00,,2013-01-24 12:33:00,
2013-01-24 07:43:00,0.0,-13.0,30.10,WSW,250,6.0,12.0,52,0.00,,,0.00,,2013-01-24 12:43:00,
2013-01-24 07:53:00,0.0,-14.0,30.11,West,267,3.0,13.0,51,0.00,,,0.00,,2013-01-24 12:53:00,
2013-01-24 08:03:00,0.0,-14.0,30.11,WNW,297,5.0,11.0,50,0.00,,,0.00,,2013-01-24 13:03:00,
2013-01-24 08:13:00,0.0,-14.0,30.11,WNW,297,5.0,11.0,50,0.00,,,0.00,,2013-01-24 13:13:00,
2013-01-24 08:23:00,1.0,-14.0,30.11,WNW,297,5.0,11.0,49,0.00,,,0.00,,2013-01-24 13:23:00,
2013-01-24 08:33:00,1.0,-14.0,30.11,WNW,288,5.0,14.0,47,0.00,,,0.00,,2013-01-24 13:33:00,
2013-01-24 08:43:00,1.0,-14.0,30.11,WNW,288,5.0,14.0,47,0.00,,,0.00,,2013-01-24 13:43:00,
2013-01-24 08:53:00,2.0,-14.0,30.11,West,277,6.0,17.0,45,0.00,,,0.00,,2013-01-24 13:53:00,
2013-01-24 09:03:00,3.0,-15.0,30.11,NNW,333,8.0,23.0,42,0.00,,,0.00,,2013-01-24 14:03:00,
2013-01-24 09:12:00,3.0,-15.0,30.11,NNW,333,8.0,23.0,42,0.00,,,0.00,,2013-01-24 14:12:00,
2013-01-24 09:23:00,3.0,-15.0,30.11,WNW,293,10.0,23.0,41,0.00,,,0.00,,2013-01-24 14:23:00,
2013-01-24 09:33:00,4.0,-14.0,30.11,NNW,328,6.0,20.0,41,0.00,,,0.00,,2013-01-24 14:33:00,
2013-01-24 09:43:00,4.0,-14.0,30.11,NNW,328,6.0,20.0,41,0.00,,,0.00,,2013-01-24 14:43:00,
2013-01-24 09:54:00,5.0,-14.0,30.10,WNW,301,8.0,17.0,40,0.00,,,0.00,,2013-01-24 14:54:00,
2013-01-24 10:04:00,6.0,-13.0,30.10,WSW,243,4.0,17.0,41,0.00,,,0.00,,2013-01-24 15:04:00,
2013-01-24 10:13:00,6.0,-13.0,30.10,WSW,243,4.0,17.0,41,0.00,,,0.00,,2013-01-24 15:13:00,
2013-01-24 10:23:00,6.0,-13.0,30.10,WSW,252,11.0,20.0,40,0.00,,,0.00,,2013-01-24 15:23:00,
2013-01-24 10:33:00,6.0,-13.0,30.10,WSW,252,11.0,20.0,40,0.00,,,0.00,,2013-01-24 15:33:00,
2013-01-24 10:43:00,7.0,-13.0,30.10,SW,221,7.0,13.0,39,0.00,,,0.00,,2013-01-24 15:43:00,
2013-01-24 10:53:00,9.0,-11.0,30.10,West,262,7.0,13.0,39,0.00,,,0.00,,2013-01-24 15:53:00,
2013-01-24 11:03:00,9.0,-11.0,30.09,NW,315,6.0,20.0,39,0.00,,,0.00,,2013-01-24 16:03:00,
2013-01-24 11:12:00,9.0,-11.0,30.09,NW,315,6.0,20.0,39,0.00,,,0.00,,2013-01-24 16:12:00,
2013-01-24 11:23:00,10.0,-11.0,30.09,NNW,329,11.0,28.0,37,0.00,,,0.00,,2013-01-24 16:23:00,
2013-01-24 11:33:00,10.0,-10.0,30.09,West,281,7.0,18.0,38,0.00,,,0.00,,2013-01-24 16:33:00,
2013-01-24 11:43:00,10.0,-10.0,30.09,West,281,7.0,18.0,38,0.00,,,0.00,,2013-01-24 16:43:00,
2013-01-24 12:03:00,11.0,-11.0,30.08,West,260,10.0,16.0,36,0.00,,,0.00,,2013-01-24 17:03:00,
2013-01-24 12:12:00,11.0,-11.0,30.08,West,260,10.0,16.0,36,0.00,,,0.00,,2013-01-24 17:12:00,
2013-01-24 12:22:00,12.0,-10.0,30.07,West,259,6.0,15.0,35,0.00,,,0.00,,2013-01-24 17:22:00,
2013-01-24 12:32:00,13.0,-10.0,30.07,WSW,256,7.0,20.0,34,0.00,,,0.00,,2013-01-24 17:32:00,
2013-01-24 12:42:00,13.0,-10.0,30.07,WSW,256,7.0,20.0,34,0.00,,,0.00,,2013-01-24 17:42:00,
2013-01-24 12:52:00,13.0,-11.0,30.07,NW,313,8.0,18.0,32,0.00,,,0.00,,2013-01-24 17:52:00,
2013-01-24 13:02:00,13.0,-11.0,30.06,NW,305,7.0,18.0,32,0.00,,,0.00,,2013-01-24 18:02:00,
2013-01-24 13:12:00,13.0,-11.0,30.07,WNW,301,8.0,25.0,32,0.00,,,0.00,,2013-01-24 18:12:00,
2013-01-24 13:23:00,13.0,-11.0,30.07,WNW,301,8.0,25.0,32,0.00,,,0.00,,2013-01-24 18:23:00,
2013-01-24 13:33:00,13.0,-12.0,30.07,WNW,297,9.0,30.0,31,0.00,,,0.00,,2013-01-24 18:33:00,
2013-01-24 13:42:00,13.0,-12.0,30.07,WNW,297,9.0,30.0,31,0.00,,,0.00,,2013-01-24 18:42:00,
2013-01-24 13:53:00,14.0,-11.0,30.06,NW,312,9.0,24.0,31,0.00,,,0.00,,2013-01-24 18:53:00,
2013-01-24 14:02:00,14.0,-11.0,30.05,West,281,8.0,28.0,31,0.00,,,0.00,,2013-01-24 19:02:00,
2013-01-24 14:12:00,14.0,-11.0,30.05,West,281,8.0,28.0,31,0.00,,,0.00,,2013-01-24 19:12:00,
2013-01-24 14:22:00,15.0,-10.0,30.04,NNE,18,8.0,21.0,31,0.00,,,0.00,,2013-01-24 19:22:00,
2013-01-24 14:33:00,15.0,-10.0,30.05,NW,308,8.0,22.0,31,0.00,,,0.00,,2013-01-24 19:33:00,
2013-01-24 14:42:00,15.0,-10.0,30.05,NW,308,8.0,22.0,31,0.00,,,0.00,,2013-01-24 19:42:00,
2013-01-24 14:53:00,15.0,-11.0,30.05,NW,326,12.0,22.0,30,0.00,,,0.00,,2013-01-24 19:53:00,
2013-01-24 15:02:00,16.0,-10.0,30.04,WNW,290,10.0,26.0,30,0.00,,,0.00,,2013-01-24 20:02:00,
2013-01-24 15:12:00,16.0,-10.0,30.04,WNW,290,10.0,26.0,30,0.00,,,0.00,,2013-01-24 20:12:00,
2013-01-24 15:22:00,16.0,-11.0,30.05,North,353,9.0,23.0,29,0.00,,,0.00,,2013-01-24 20:22:00,
2013-01-24 15:32:00,16.0,-10.0,30.05,NW,321,6.0,16.0,30,0.00,,,0.00,,2013-01-24 20:32:00,
2013-01-24 15:42:00,16.0,-10.0,30.05,NW,321,6.0,16.0,30,0.00,,,0.00,,2013-01-24 20:42:00,
2013-01-24 15:52:00,16.0,-10.0,30.05,WNW,297,10.0,17.0,30,0.00,,,0.00,,2013-01-24 20:52:00,
2013-01-24 16:02:00,17.0,-10.0,30.05,NW,304,6.0,23.0,29,0.00,,,0.00,,2013-01-24 21:02:00,
2013-01-24 16:12:00,17.0,-10.0,30.05,NW,304,6.0,23.0,29,0.00,,,0.00,,2013-01-24 21:12:00,
2013-01-24 16:22:00,17.0,-10.0,30.05,WNW,284,8.0,21.0,29,0.00,,,0.00,,2013-01-24 21:22:00,
2013-01-24 16:33:00,17.0,-9.0,30.06,West,266,4.0,9.0,30,0.00,,,0.00,,2013-01-24 21:33:00,
2013-01-24 16:43:00,17.0,-9.0,30.06,West,266,4.0,9.0,30,0.00,,,0.00,,2013-01-24 21:43:00,
2013-01-24 16:53:00,16.0,-12.0,30.06,WNW,298,8.0,27.0,27,0.00,,,0.00,,2013-01-24 21:53:00,
2013-01-24 17:03:00,16.0,-11.0,30.07,NNE,23,6.0,22.0,28,0.00,,,0.00,,2013-01-24 22:03:00,
2013-01-24 17:12:00,16.0,-11.0,30.07,NNE,23,6.0,22.0,28,0.00,,,0.00,,2013-01-24 22:12:00,
2013-01-24 17:22:00,16.0,-11.0,30.08,NNW,345,13.0,22.0,29,0.00,,,0.00,,2013-01-24 22:22:00,
2013-01-24 17:32:00,15.0,-11.0,30.09,WNW,302,10.0,21.0,29,0.00,,,0.00,,2013-01-24 22:32:00,
2013-01-24 17:42:00,15.0,-11.0,30.09,WNW,302,10.0,21.0,29,0.00,,,0.00,,2013-01-24 22:42:00,
2013-01-24 17:52:00,15.0,-11.0,30.09,WSW,249,7.0,18.0,30,0.00,,,0.00,,2013-01-24 22:52:00,
2013-01-24 18:03:00,15.0,-11.0,30.10,SW,235,8.0,19.0,30,0.00,,,0.00,,2013-01-24 23:03:00,
2013-01-24 18:12:00,15.0,-11.0,30.10,SW,235,8.0,19.0,30,0.00,,,0.00,,2013-01-24 23:12:00,
2013-01-24 18:22:00,15.0,-10.0,30.09,West,259,7.0,17.0,31,0.00,,,0.00,,2013-01-24 23:22:00,
2013-01-24 18:32:00,15.0,-11.0,30.11,West,278,10.0,18.0,30,0.00,,,0.00,,2013-01-24 23:32:00,
2013-01-24 18:42:00,15.0,-11.0,30.11,West,278,10.0,18.0,30,0.00,,,0.00,,2013-01-24 23:42:00,
2013-01-24 18:52:00,15.0,-11.0,30.11,NNW,338,8.0,17.0,30,0.00,,,0.00,,2013-01-24 23:52:00,
2013-01-24 19:02:00,15.0,-11.0,30.11,WSW,238,6.0,22.0,30,0.00,,,0.00,,2013-01-25 00:02:00,
2013-01-24 19:12:00,15.0,-11.0,30.11,WSW,238,6.0,22.0,30,0.00,,,0.00,,2013-01-25 00:12:00,
2013-01-24 19:22:00,15.0,-11.0,30.12,West,272,6.0,20.0,30,0.00,,,0.00,,2013-01-25 00:22:00,
2013-01-24 19:32:00,15.0,-11.0,30.12,NNW,328,6.0,17.0,30,0.00,,,0.00,,2013-01-25 00:32:00,
2013-01-24 19:42:00,15.0,-11.0,30.12,NNW,328,6.0,17.0,30,0.00,,,0.00,,2013-01-25 00:42:00,
2013-01-24 19:52:00,14.0,-12.0,30.12,West,281,13.0,24.0,29,0.00,,,0.00,,2013-01-25 00:52:00,
2013-01-24 20:02:00,14.0,-12.0,30.12,East,101,12.0,31.0,29,0.00,,,0.00,,2013-01-25 01:02:00,
2013-01-24 20:12:00,14.0,-12.0,30.12,East,101,12.0,31.0,29,0.00,,,0.00,,2013-01-25 01:12:00,
2013-01-24 20:22:00,14.0,-12.0,30.13,West,277,12.0,20.0,29,0.00,,,0.00,,2013-01-25 01:22:00,
2013-01-24 20:32:00,14.0,-12.0,30.12,WNW,284,9.0,25.0,29,0.00,,,0.00,,2013-01-25 01:32:00,
2013-01-24 20:42:00,14.0,-12.0,30.12,WNW,284,9.0,25.0,29,0.00,,,0.00,,2013-01-25 01:42:00,
2013-01-24 20:52:00,13.0,-13.0,30.12,West,267,9.0,19.0,30,0.00,,,0.00,,2013-01-25 01:52:00,
2013-01-24 21:02:00,13.0,-12.0,30.14,WSW,249,6.0,18.0,31,0.00,,,0.00,,2013-01-25 02:02:00,
2013-01-24 21:12:00,13.0,-12.0,30.14,WSW,249,6.0,18.0,31,0.00,,,0.00,,2013-01-25 02:12:00,
2013-01-24 21:22:00,13.0,-12.0,30.13,WSW,255,9.0,22.0,31,0.00,,,0.00,,2013-01-25 02:22:00,
2013-01-24 21:32:00,13.0,-11.0,30.13,West,267,9.0,17.0,32,0.00,,,0.00,,2013-01-25 02:32:00,
2013-01-24 21:42:00,13.0,-11.0,30.13,West,267,9.0,17.0,32,0.00,,,0.00,,2013-01-25 02:42:00,
2013-01-24 21:53:00,13.0,-11.0,30.14,WNW,297,5.0,25.0,32,0.00,,,0.00,,2013-01-25 02:53:00,
2013-01-24 22:02:00,12.0,-12.0,30.15,WSW,257,7.0,14.0,33,0.00,,,0.00,,2013-01-25 03:02:00,
2013-01-24 22:12:00,12.0,-11.0,30.15,WNW,293,3.0,19.0,34,0.00,,,0.00,,2013-01-25 03:12:00,
2013-01-24 22:22:00,12.0,-11.0,30.15,WNW,293,3.0,19.0,34,0.00,,,0.00,,2013-01-25 03:22:00,
2013-01-24 22:33:00,12.0,-10.0,30.15,NNE,16,4.0,11.0,35,0.00,,,0.00,,2013-01-25 03:33:00,
2013-01-24 22:42:00,12.0,-10.0,30.15,NNE,16,4.0,11.0,35,0.00,,,0.00,,2013-01-25 03:42:00,
2013-01-24 22:53:00,11.0,-11.0,30.16,NW,317,6.0,10.0,36,0.00,,,0.00,,2013-01-25 03:53:00,
2013-01-24 23:02:00,11.0,-11.0,30.17,WNW,287,8.0,17.0,36,0.00,,,0.00,,2013-01-25 04:02:00,
2013-01-24 23:12:00,11.0,-11.0,30.17,WNW,287,8.0,17.0,36,0.00,,,0.00,,2013-01-25 04:12:00,
2013-01-24 23:22:00,11.0,-10.0,30.17,WNW,291,7.0,16.0,37,0.00,,,0.00,,2013-01-25 04:22:00,
2013-01-24 23:32:00,11.0,-10.0,30.18,NW,316,10.0,23.0,38,0.00,,,0.00,,2013-01-25 04:32:00,
2013-01-24 23:42:00,11.0,-10.0,30.18,NW,316,10.0,23.0,38,0.00,,,0.00,,2013-01-25 04:42:00,
2013-01-24 23:52:00,10.0,-10.0,30.17,NE,47,9.0,30.0,39,0.00,,,0.00,,2013-01-25 04:52:00,